"TOA5","AWS1","CR1000","7964","CR1000.Std.14","CPU:AWS1_114.CR1","64363","TBL110"
"TIMESTAMP","RECORD","Wind_spd_WVc(1)","Wind_spd_WVc(2)","Air_Temp_Avg","Humidity_Avg","SW_upper_Wm2_Avg","Rain_Tot","Press_Avg","Issui_Tot","Depth_cm","SR50A_Raw","Quality","Ground_Temp_Avg(1)","Ground_Temp_Avg(2)","SW_lower_Wm2_Avg","Albedo_Avg","SWC_per(1)","SWC_per(2)","Period(1)","Period(2)"
"TS","RN","","","","","","","","","","","","","","","","","","",""
"","","WVc","WVc","Avg","Avg","Avg","Tot","Avg","Tot","Smp","Smp","Smp","Avg","Avg","Avg","Avg","Smp","Smp","Smp","Smp"
"2013-11-02 00:00:00",102301,0.234,175,4.467,69.09,0,0,874.0721,0,-0.568,3.157,208,6.127,8.37,1.016103,0,50.01,57.8,33.3,35.17
"2013-11-02 00:10:00",102302,0.178,164.3,5.12,69.02,0,0,874.0721,0,-0.386,3.153,210,6.139,8.37,0.8871964,0,49.95,57.8,33.28,35.17
"2013-11-02 00:20:00",102303,0.1,115.6,5.247,71.2,0,0,874.0784,0,-1.035,3.162,211,6.131,8.35,0.6710632,0,49.95,57.8,33.28,35.17
"2013-11-02 00:30:00",102304,0.135,176.3,4.726,74.58,0,0,874.0721,0,-0.221,3.154,220,6.042,8.34,0.1971314,0,50.01,57.8,33.3,35.17
"2013-11-02 00:40:00",102305,0.175,88.3,5.359,75.01,0,0,874.1774,0,-0.566,3.154,213,6.003,8.32,0.7695529,0,50.01,57.8,33.3,35.17
"2013-11-02 00:50:00",102306,0.178,122.4,5.241,78.12,0,0,874.3629,0,-0.725,3.161,206,6,8.3,0.5383028,0,49.95,57.8,33.28,35.17
"2013-11-02 01:00:00",102307,0.119,115.5,4.996,81.7,0,0,874.5482,0,-0.867,3.157,205,6.009,8.26,0.3373849,0,50.01,57.8,33.3,35.17
"2013-11-02 01:10:00",102308,0.044,170.4,5.291,81,0,0,874.4366,0,-0.568,3.156,203,5.943,8.25,0.307058,0,50.01,57.8,33.3,35.17
"2013-11-02 01:20:00",102309,0.008,173,5.377,82.7,0,0,874.268,0,-0.463,3.153,210,5.912,8.26,0.4018289,0,50.01,57.8,33.3,35.17
"2013-11-02 01:30:00",102310,0.098,171,5.149,83.8,0,0,874.1163,0,-0.627,3.162,203,5.912,8.25,0.352548,0,50.01,57.8,33.3,35.17
"2013-11-02 01:40:00",102311,0.447,189,4.12,89.2,0,0,874.1522,0,-0.579,3.163,203,5.876,8.25,0,0,50.01,57.8,33.3,35.17
"2013-11-02 01:50:00",102312,0.356,189.1,3.936,90.6,0,0,874.3439,0,-0.276,3.16,202,5.834,8.25,0,0,50.01,57.8,33.3,35.17
"2013-11-02 02:00:00",102313,0.488,189,3.865,91.8,0,0,874.325,0,-0.481,3.164,202,5.825,8.25,0.1705877,0,49.95,57.8,33.28,35.17
"2013-11-02 02:10:00",102314,0.352,163,3.92,91.9,0,0,874.2006,0,0.44,3.147,200,5.825,8.25,0.5686257,0,49.95,57.8,33.28,35.17
"2013-11-02 02:20:00",102315,0.896,38.75,5.593,70.77,0,0,874.013,0,0,3.145,195,5.827,8.25,2.047053,0,50.01,57.74,33.3,35.16
"2013-11-02 02:30:00",102316,0.976,45.15,6.427,64.34,0,0,873.8993,0,-0.298,3.146,198,5.832,8.25,1.558035,0,49.95,57.74,33.28,35.16
"2013-11-02 02:40:00",102317,1.006,45.93,6.495,67.85,0,0,873.8234,0,-0.7,3.149,190,5.826,8.25,0.6633968,0,50.01,57.74,33.3,35.16
"2013-11-02 02:50:00",102318,0.597,120.9,5.656,72.29,0,0,873.8171,0,-0.226,3.159,201,5.755,8.25,0.1705877,0,50.01,57.74,33.3,35.16
"2013-11-02 03:00:00",102319,0.552,172.1,3.976,81.5,0,0,873.6169,0,-0.074,3.158,201,5.739,8.26,0,0,50.01,57.74,33.3,35.16
"2013-11-02 03:10:00",102320,0.499,184.4,3.943,81.5,0,0,873.5664,0,-0.303,3.161,200,5.74,8.21,0,0,50.01,57.74,33.3,35.16
"2013-11-02 03:20:00",102321,0.626,186.5,3.65,83.4,0,0,873.5664,0,-0.279,3.162,202,5.737,8.23,0,0,50.01,57.74,33.3,35.16
"2013-11-02 03:30:00",102322,0.593,188.1,3.67,82.9,0,0,873.4884,0,-0.28,3.162,202,5.652,8.2,0.1137252,0,49.95,57.74,33.28,35.16
"2013-11-02 03:40:00",102323,0.626,195.2,3.67,83.9,0,0,873.2988,0,-0.227,3.16,201,5.652,8.16,0.2464045,0,50.01,57.74,33.3,35.16
"2013-11-02 03:50:00",102324,0.422,189.1,3.918,82.7,0,0,873.3135,0,-0.33,3.163,205,5.652,8.16,0.3373846,0,50.01,57.74,33.3,35.16
"2013-11-02 04:00:00",102325,0.26,191.4,3.732,84.6,0,0,873.3135,0,-0.275,3.159,201,5.598,8.2,0.2994762,0,50.01,57.74,33.3,35.16
"2013-11-02 04:10:00",102326,0.004,193.9,4.062,83.3,0,0,873.4189,0,-0.578,3.162,201,5.542,8.23,0.4321556,0,50.01,57.74,33.3,35.16
"2013-11-02 04:20:00",102327,0.047,193.4,3.657,84.9,0,0,873.5664,0,-0.356,3.164,200,5.565,8.11,0.06823509,0,50.01,57.74,33.3,35.16
"2013-11-02 04:30:00",102328,0.12,192.9,3.62,85.7,0,0,873.5664,0,-0.354,3.162,201,5.566,8.08,0.4359464,0,49.95,57.74,33.28,35.16
"2013-11-02 04:40:00",102329,0.024,143.1,4.065,82.1,0,0,873.5496,0,-0.502,3.161,200,5.559,8.08,0.8377753,0,50.01,57.74,33.3,35.16
"2013-11-02 04:50:00",102330,0.135,165.5,4.039,82,0,0,873.3304,0,-0.552,3.162,200,5.556,8.08,0.7354227,0,49.95,57.74,33.28,35.16
"2013-11-02 05:00:00",102331,0.371,185.1,3.634,84.1,0,0,873.4357,0,-0.33,3.163,200,5.492,8.08,0.2767312,0,50.01,57.74,33.3,35.16
"2013-11-02 05:10:00",102332,0.489,189.4,3.443,85.5,0,0,873.3094,0,-0.281,3.163,199,5.479,8.09,0.3070579,0,50.01,57.74,33.3,35.16
"2013-11-02 05:20:00",102333,0.548,188.9,3.478,85.3,0,0,873.343,0,-0.381,3.164,200,5.479,8.12,0.2843129,0,50.01,57.74,33.3,35.16
"2013-11-02 05:30:00",102334,0.519,199.3,3.422,85.4,0,0,873.5474,0,-0.231,3.163,195,5.495,8.09,0.2653587,0,50.01,57.74,33.3,35.16
"2013-11-02 05:40:00",102335,0.412,191,3.369,86.1,0,0,873.5664,0,-0.331,3.164,200,5.523,8.03,0.1667969,0,50.01,57.68,33.3,35.14
"2013-11-02 05:50:00",102336,0.328,189.8,3.439,85,0,0,873.5727,0,-0.33,3.163,196,5.458,8,0.3070579,0,49.95,57.68,33.28,35.14
"2013-11-02 06:00:00",102337,0.358,191.4,3.944,82.7,0,0,873.7454,0,-0.325,3.159,201,5.394,7.991,0.8301936,0,49.95,57.68,33.28,35.14
"2013-11-02 06:10:00",102338,0.13,184.6,4.706,75.93,0,0,874.0804,0,-0.695,3.158,200,5.393,7.991,1.341957,0,49.95,57.68,33.28,35.14
"2013-11-02 06:20:00",102339,0.092,168.3,4.312,78.23,0.2241029,0,874.386,0,-0.405,3.163,201,5.419,7.991,0.4890182,0.15,50.01,57.68,33.3,35.14
"2013-11-02 06:30:00",102340,0.178,188.2,3.699,82.9,3.290774,0,874.485,0,-0.653,3.163,197,5.42,7.991,0.6709784,0.196,49.95,57.68,33.28,35.14
"2013-11-02 06:40:00",102341,0.112,182.4,4.615,79.12,7.694199,0,874.5672,0,-0.372,3.157,200,5.327,7.994,1.675551,0.221,50.01,57.68,33.3,35.14
"2013-11-02 06:50:00",102342,0.214,168.2,4.918,79.79,11.45677,0,874.5778,0,-0.368,3.155,202,5.306,7.987,1.982609,0.175,50.01,57.68,33.3,35.14
"2013-11-02 07:00:00",102343,0.329,129.9,4.985,80.5,16.59934,0,874.5778,0,-0.771,3.159,201,5.306,7.989,2.183523,0.133,50.01,57.68,33.3,35.14
"2013-11-02 07:10:00",102344,0.37,170.2,4.864,80.9,26.18858,0,874.4639,0,-0.169,3.155,202,5.306,7.963,5.231357,0.197,50.01,57.68,33.3,35.14
"2013-11-02 07:20:00",102345,0.19,179,5.207,78.88,32.74654,0,874.4471,0,-0.059,3.149,200,5.306,7.958,7.092659,0.217,49.95,57.68,33.28,35.14
"2013-11-02 07:30:00",102346,0.132,153.7,5.789,76.58,36.14347,0,874.5756,0,-0.402,3.148,202,5.306,7.916,8.673438,0.24,50.01,57.68,33.3,35.14
"2013-11-02 07:40:00",102347,0.15,105.4,6.475,74.23,42.7604,0,874.5778,0,-0.241,3.143,201,5.297,7.9,11.04271,0.261,50.01,57.68,33.3,35.14
"2013-11-02 07:50:00",102348,0.258,108.8,7.171,70.73,90.19551,0,874.5778,0,-0.837,3.145,200,5.29,7.926,12.68036,0.158,50.01,57.68,33.3,35.14
"2013-11-02 08:00:00",102349,0.272,23.53,7.828,63.09,80.13053,0,874.6262,0,-0.324,3.138,200,5.275,7.969,12.47565,0.172,49.95,57.68,33.28,35.14
"2013-11-02 08:10:00",102350,0.185,317.8,8.06,58.53,60.03583,0,874.7054,0,-0.087,3.134,198,5.265,7.969,12.65378,0.221,50.01,57.68,33.3,35.14
"2013-11-02 08:20:00",102351,0.255,359.9,8.2,58.15,52.19014,0,874.7282,0,0.05,3.133,193,5.265,7.942,13.32422,0.257,50.01,57.62,33.3,35.13
"2013-11-02 08:30:00",102352,0.133,75.7,8.21,60.54,48.98061,0,874.6026,0,0.126,3.131,198,5.23,7.913,13.79655,0.282,49.95,57.68,33.28,35.14
"2013-11-02 08:40:00",102353,0.38,45.86,8.62,57.47,54.78858,0,874.6923,0,-0.058,3.131,184,5.226,7.885,14.96986,0.276,50.01,57.68,33.3,35.14
"2013-11-02 08:50:00",102354,0.444,339.7,8.73,54.86,53.92106,0,874.7369,0,0.023,3.13,197,5.223,7.869,14.92363,0.277,50.06,57.68,33.31,35.14
"2013-11-02 09:00:00",102355,0.573,353.3,8.72,54.68,56.71452,0,874.709,0,0.252,3.128,204,5.202,7.865,14.91956,0.263,50.01,57.68,33.3,35.14
"2013-11-02 09:10:00",102356,0.365,7.185,8.61,57.42,59.70905,0,874.6984,0,-0.079,3.132,213,5.139,7.861,14.946,0.251,50.01,57.68,33.3,35.14
"2013-11-02 09:20:00",102357,0.415,342.7,8.36,60.79,66.11531,0,874.7363,0,0.298,3.129,198,5.131,7.846,15.25292,0.231,50.01,57.68,33.3,35.14
"2013-11-02 09:30:00",102358,0.325,96.1,8.74,61.27,74.19988,0,874.7363,0,-1.435,3.141,217,5.165,7.776,16.89379,0.228,49.95,57.68,33.28,35.14
"2013-11-02 09:40:00",102359,0.567,111.3,9.83,59.67,82.312,0,874.7784,0,0.341,3.119,320,5.238,7.776,18.8833,0.23,49.95,57.68,33.28,35.14
"2013-11-02 09:50:00",102360,0.612,108.4,10.32,60.7,84.63087,0,874.85,0,-0.848,3.129,233,5.271,7.779,19.78142,0.234,50.01,57.68,33.3,35.14
"2013-11-02 10:00:00",102361,1.053,134.8,10.45,61.38,83.29758,0,874.7005,0,-1.79,3.139,218,5.304,7.768,20.60731,0.247,50.01,57.68,33.3,35.14
"2013-11-02 10:10:00",102362,0.798,118.2,10.73,61.64,105.1397,0,874.5157,0,-5.052,3.168,257,5.281,7.754,24.70995,0.238,50.06,57.68,33.31,35.14
"2013-11-02 10:20:00",102363,0.871,126.7,10.94,61.06,136.6104,0,874.415,0,-4.622,3.164,245,5.339,7.721,29.837,0.219,50.01,57.68,33.3,35.14
"2013-11-02 10:30:00",102364,0.472,9.44,10.76,62.53,151.1278,0,874.4008,0,-3.475,3.155,241,5.318,7.695,29.31903,0.196,50.01,57.68,33.3,35.14
"2013-11-02 10:40:00",102365,0.524,154.5,11.04,61.68,202.2033,0,874.3922,0,-2,3.136,243,5.386,7.683,34.67455,0.171,49.95,57.62,33.28,35.13
"2013-11-02 10:50:00",102366,0.562,305.1,10.61,65.94,256.7227,0,874.1163,0,-1.873,3.141,254,5.445,7.68,46.90262,0.183,50.06,57.68,33.31,35.14
"2013-11-02 11:00:00",102367,0.435,359.1,10.62,68.18,218.9173,0,873.8841,0,-2.308,3.14,246,5.493,7.679,44.92116,0.211,49.95,57.62,33.28,35.13
"2013-11-02 11:10:00",102368,0.548,356.1,10.88,66.61,198.9382,0,873.8819,0,-2.254,3.139,255,5.514,7.678,43.31109,0.228,49.95,57.62,33.28,35.13
"2013-11-02 11:20:00",102369,0.442,68.79,11.43,65.07,262.5361,0,873.8503,0,-2.761,3.144,253,5.58,7.676,35.85907,0.131,50.01,57.62,33.3,35.13
"2013-11-02 11:30:00",102370,0.355,11.88,11.15,66.5,263.3652,0,873.6735,0,-2.671,3.143,251,5.639,7.661,39.38723,0.14,49.95,57.62,33.28,35.13
"2013-11-02 11:40:00",102371,0.672,9.42,11.38,65.13,365.6476,0,873.6533,0,-2.939,3.146,246,5.676,7.637,42.88435,0.107,49.95,57.62,33.28,35.13
"2013-11-02 11:50:00",102372,0.539,21.55,11.49,66.62,539.0206,0,873.3093,0,-2.609,3.14,227,5.739,7.618,67.26754,0.116,49.95,57.62,33.28,35.13
"2013-11-02 12:00:00",102373,0.41,19.84,11.91,66.31,596.2582,0,873.1095,0,-3.338,3.141,278,5.756,7.581,73.016,0.115,49.84,57.62,33.26,35.13
"2013-11-02 12:10:00",102374,0.453,347.6,12.04,63.97,408.7995,0,873.1473,0,-4.18,3.155,216,5.832,7.539,49.81822,0.106,49.9,57.62,33.27,35.13
"2013-11-02 12:20:00",102375,0.448,58.36,11.81,65.86,509.9237,0,873.031,0,-4.227,3.155,230,5.909,7.516,62.34125,0.111,49.95,57.62,33.28,35.13
"2013-11-02 12:30:00",102376,0.247,43.98,11.46,68.15,234.4312,0,872.942,0,-4.795,3.162,204,5.991,7.547,21.72581,0.081,49.9,57.62,33.27,35.13
"2013-11-02 12:40:00",102377,0.7,106.1,11.7,66.63,555.3439,0,872.7987,0,-4.122,3.153,220,6.045,7.566,73.42538,0.126,49.9,57.62,33.27,35.13
"2013-11-02 12:50:00",102378,0.609,97,11.85,64.51,222.7581,0,872.7776,0,-3.672,3.151,220,6.123,7.572,22.19158,0.097,49.9,57.62,33.27,35.13
"2013-11-02 13:00:00",102379,0.298,77.25,11.69,66.38,181.0391,0,872.7755,0,-3.716,3.15,230,6.188,7.588,21.06307,0.115,49.9,57.62,33.27,35.13
"2013-11-02 13:10:00",102380,0.436,95.4,11.9,64.82,209.4474,0,872.584,0,-3.974,3.153,225,6.238,7.58,23.67228,0.107,49.9,57.62,33.27,35.13
"2013-11-02 13:20:00",102381,0.35,63.9,11.76,65.57,239.6625,0,872.5272,0,-4.301,3.155,227,6.33,7.546,28.73924,0.117,49.9,57.62,33.27,35.13
"2013-11-02 13:30:00",102382,0.525,41.67,11.89,66.08,298.9144,0,872.5104,0,-4.734,3.159,203,6.397,7.575,35.40429,0.116,49.84,57.62,33.26,35.13
"2013-11-02 13:40:00",102383,0.622,64.2,12.11,65.65,378.1106,0,872.3967,0,-5.805,3.169,216,6.422,7.566,38.82391,0.103,49.9,57.62,33.27,35.13
"2013-11-02 13:50:00",102384,0.43,37.19,11.86,65.92,221.3992,0,872.3293,0,-5.964,3.172,213,6.501,7.579,27.58043,0.124,49.84,57.62,33.26,35.13
"2013-11-02 14:00:00",102385,0.554,354.7,11.7,66.97,219.8163,0,872.2787,0,-4.689,3.16,210,6.566,7.586,29.1558,0.131,49.9,57.62,33.27,35.13
"2013-11-02 14:10:00",102386,0.249,358.8,11.57,68.49,143.0513,0,872.2787,0,-4.187,3.157,206,6.648,7.581,16.496,0.114,49.84,57.62,33.26,35.13
"2013-11-02 14:20:00",102387,0.294,346.3,11.63,69.08,214.8204,0,872.2366,0,-4.423,3.155,207,6.731,7.545,27.60315,0.128,49.84,57.62,33.26,35.13
"2013-11-02 14:30:00",102388,0.391,346.4,11.62,66.42,131.3863,0,872.0683,0,-6.302,3.177,207,6.758,7.551,14.69719,0.111,49.79,57.62,33.24,35.13
"2013-11-02 14:40:00",102389,0.357,72.9,11.28,67.83,119.3403,0,872.0262,0,-6.741,3.183,201,6.843,7.577,13.42099,0.112,49.84,57.62,33.26,35.13
"2013-11-02 14:50:00",102390,0.268,110.1,11.16,69.17,125.2396,0,872.0536,0,-6.843,3.184,194,6.94,7.572,14.47755,0.114,49.79,57.62,33.24,35.13
"2013-11-02 15:00:00",102391,0.559,126.7,10.9,68.08,80.07211,0,872.0515,0,-7.055,3.189,193,7.007,7.546,8.592611,0.104,49.84,57.56,33.26,35.12
"2013-11-02 15:10:00",102392,0.263,67.23,10.74,70.29,102.9936,0,872.0511,0,-7.256,3.19,185,7.075,7.545,12.61815,0.122,49.79,57.56,33.24,35.12
"2013-11-02 15:20:00",102393,0.105,99.1,10.83,70.2,92.30876,0,872.1406,0,-7.442,3.192,197,7.13,7.533,10.81581,0.117,49.79,57.56,33.24,35.12
"2013-11-02 15:30:00",102394,0.194,67.69,10.61,69.89,86.695,0,872.0599,0,-7.729,3.196,185,7.198,7.551,10.13069,0.117,49.79,57.56,33.24,35.12
"2013-11-02 15:40:00",102395,0.123,75.9,10.45,71.36,65.39584,0,872.1251,0,-7.641,3.197,201,7.266,7.583,6.86629,0.103,49.79,57.56,33.24,35.12
"2013-11-02 15:50:00",102396,0.129,23.31,10.11,72.4,65.15759,0,872.0693,0,-6.893,3.191,226,7.336,7.624,7.49938,0.115,49.79,57.56,33.24,35.12
"2013-11-02 16:00:00",102397,0.046,84.5,10.07,72.43,59.33682,0,871.9207,0,-7.312,3.195,218,7.386,7.653,7.094683,0.119,49.79,57.56,33.24,35.12
"2013-11-02 16:10:00",102398,0.09,75.85,9.95,73.28,43.20085,0,871.8771,0,-6.913,3.192,225,7.458,7.667,4.943454,0.113,49.79,57.56,33.24,35.12
"2013-11-02 16:20:00",102399,0.098,49.13,9.78,73.5,34.57814,0,872.1068,0,-6.613,3.19,260,7.509,7.675,4.023062,0.113,49.79,57.56,33.24,35.12
"2013-11-02 16:30:00",102400,0.059,53.19,9.61,72.31,16.47792,0,871.9384,0,-6.465,3.19,249,7.546,7.702,1.647881,0.099,49.79,57.62,33.24,35.13
"2013-11-02 16:40:00",102401,0.044,155.9,9.37,72.64,8.859757,0,871.8395,0,-7.256,3.199,209,7.519,7.735,0.6553663,0.07,49.79,57.56,33.24,35.12
"2013-11-02 16:50:00",102402,0.005,312.7,9.11,74.01,1.166896,0,871.8857,0,-7.18,3.199,210,7.569,7.752,0,0,49.73,57.56,33.23,35.12
"2013-11-02 17:00:00",102403,0.098,43.42,9.01,74.46,0,0,871.8731,0,-5.606,3.184,253,7.593,7.757,0,0,49.73,57.51,33.23,35.1
"2013-11-02 17:10:00",102404,0.042,8.88,8.88,75,0,0,871.8625,0,-5.38,3.183,237,7.602,7.727,0,0,49.73,57.51,33.23,35.1
"2013-11-02 17:20:00",102405,0.167,1.826,8.72,75.75,0,0,871.8625,0,-4.343,3.174,325,7.636,7.724,0.02651774,0,49.73,57.56,33.23,35.12
"2013-11-02 17:30:00",102406,0.137,38.03,8.44,78.45,0,0,871.9086,0,-4.525,3.178,309,7.656,7.725,0.003788249,0,49.73,57.51,33.23,35.1
"2013-11-02 17:40:00",102407,0.021,203.1,7.737,81.4,0,0,871.9025,0,-4.464,3.182,225,7.636,7.726,0,0,49.68,57.51,33.22,35.1
"2013-11-02 17:50:00",102408,0,0,7.458,83.1,0,0,871.8905,0,-3.227,3.168,221,7.623,7.765,0.04167437,0,49.68,57.51,33.22,35.1
"2013-11-02 18:00:00",102409,0.009,175.9,7.908,83.8,0,0,872.093,0,-2.549,3.16,218,7.631,7.825,0.5455691,0,49.68,57.51,33.22,35.1
"2013-11-02 18:10:00",102410,0,0,7.729,85.4,0,0,872.3101,0,-1.962,3.156,237,7.63,7.864,0.2197641,0,49.73,57.51,33.23,35.1
"2013-11-02 18:20:00",102411,0.152,10.82,7.762,87.1,0,0,872.3818,0,-1.384,3.149,237,7.631,7.895,0.5911427,0,49.68,57.51,33.22,35.1
"2013-11-02 18:30:00",102412,0.018,160.9,7.368,87.2,0,0,872.2505,0,-1.165,3.149,236,7.67,7.924,0.2084217,0,49.68,57.51,33.22,35.1
"2013-11-02 18:40:00",102413,0.085,34.75,7.741,87.9,0,0,872.5578,0,-1.286,3.148,245,7.684,7.956,0.8450637,0,49.68,57.51,33.22,35.1
"2013-11-02 18:50:00",102414,0,0,7.517,87.1,0,0,872.5014,0,-1.552,3.155,235,7.699,7.937,0.2387407,0,49.68,57.51,33.22,35.1
"2013-11-02 19:00:00",102415,0.172,90.8,6.909,89.1,0,0,872.4763,0,-1.172,3.151,235,7.606,7.917,0.1515816,0,49.68,57.56,33.22,35.12
"2013-11-02 19:10:00",102416,0.05,106.4,7.282,89.9,0,0,872.5394,0,-1.142,3.149,244,7.556,7.901,0.6176952,0,49.68,57.51,33.22,35.1
"2013-11-02 19:20:00",102417,0.097,97.7,7.423,89.5,0,0,872.5984,0,-0.89,3.147,234,7.586,7.907,0.6631697,0,49.68,57.51,33.22,35.1
"2013-11-02 19:30:00",102418,0.113,149.5,7.414,89.6,0,0,872.4615,0,-0.635,3.144,233,7.614,7.964,0.6783278,0,49.68,57.51,33.22,35.1
"2013-11-02 19:40:00",102419,0.094,149.5,7.391,88.8,0,0,872.3057,0,-0.561,3.144,230,7.491,8.05,0.6252742,0,49.68,57.51,33.22,35.1
"2013-11-02 19:50:00",102420,0.087,156.2,7.222,88.6,0,0,872.2888,0,-0.942,3.148,214,7.47,8.06,0.2273725,0,49.62,57.51,33.2,35.1
"2013-11-02 20:00:00",102421,0.119,184.7,7.272,87.5,0,0,872.3962,0,-0.634,3.144,232,7.502,8.04,0.4661135,0,49.68,57.51,33.22,35.1
"2013-11-02 20:10:00",102422,0.015,110.3,7.458,85.4,0,0,872.4615,0,-0.809,3.145,228,7.515,8.03,0.6214847,0,49.68,57.51,33.22,35.1
"2013-11-02 20:20:00",102423,0.168,55.36,7.584,83.9,0,0,872.4615,0,-0.859,3.145,250,7.385,8.04,0.6972755,0,49.68,57.51,33.22,35.1
"2013-11-02 20:30:00",102424,0.002,43.68,7.52,83.9,0,0,872.5858,0,-0.328,3.14,309,7.396,8.09,0.3979018,0,49.62,57.51,33.2,35.1
"2013-11-02 20:40:00",102425,0.059,155.5,7.176,84.7,0,0,872.4868,0,-39.67,3.533,227,7.43,8.06,0.2273725,0,49.68,57.51,33.22,35.1
"2013-11-02 20:50:00",102426,0.044,175.7,7.143,85.2,0,0,872.4615,0,-0.257,3.141,473,7.413,8.06,0.2766365,0,49.62,57.51,33.2,35.1
"2013-11-02 21:00:00",102427,0.009,294.6,7.421,82.6,0,0,872.4615,0,-6.335,3.199,206,7.351,8.08,0.8640153,0,49.68,57.51,33.22,35.1
"2013-11-02 21:10:00",102428,0.15,181.1,6.979,84.4,0,0,872.4615,0,-6.214,3.204,232,7.325,8.14,0.1970561,0,49.62,57.51,33.2,35.1
"2013-11-02 21:20:00",102429,0.359,182.8,6.5,86.8,0,0,872.4699,0,-6.417,3.207,208,7.345,8.15,0.03031633,0,49.62,57.51,33.2,35.1
"2013-11-02 21:30:00",102430,0.176,188.9,6.274,87.3,0,0,872.4615,0,-5.837,3.202,204,7.305,8.16,0.04926403,0,49.68,57.45,33.22,35.09
"2013-11-02 21:40:00",102431,0.25,180.5,6.174,87.2,0,0,872.4215,0,-1.539,3.16,306,7.217,8.16,0.05305357,0,49.62,57.45,33.2,35.09
"2013-11-02 21:50:00",102432,0.019,217.3,6.54,85.2,0,0,872.3036,0,-3.503,3.175,264,7.27,8.15,0.4926403,0,49.62,57.45,33.2,35.09
"2013-11-02 22:00:00",102433,0.101,183.4,6.595,84.1,0,0,872.1035,0,-0.09,3.143,297,7.293,8.15,0.3903227,0,49.68,57.45,33.22,35.09
"2013-11-02 22:10:00",102434,0.122,99.3,7.196,80.3,0,0,872.0656,0,-1.215,3.149,252,7.227,8.12,1.186126,0,49.62,57.45,33.2,35.09
"2013-11-02 22:20:00",102435,0.076,50.92,7.621,78.14,0,0,872.1097,0,-0.831,3.144,267,7.172,8.11,1.227811,0,49.68,57.45,33.22,35.09
"2013-11-02 22:30:00",102436,0.16,299.8,7.621,79.6,0,0,872.2088,0,-0.807,3.144,289,7.133,8.08,0.8526467,0,49.62,57.45,33.2,35.09
"2013-11-02 22:40:00",102437,0.092,107.5,7.159,82.6,0,0,872.2467,0,-0.993,3.149,249,7.17,8.07,0.03410587,0,49.62,57.45,33.2,35.09
"2013-11-02 22:50:00",102438,0.011,117.5,7.188,82.8,0,0,872.3415,0,-1.1,3.152,251,7.204,8.07,0.1250549,0,49.62,57.45,33.2,35.09
"2013-11-02 23:00:00",102439,0.072,162.6,6.559,84.7,0,0,872.2109,0,-1.051,3.152,243,7.127,8.07,0,0,49.62,57.45,33.2,35.09
"2013-11-02 23:10:00",102440,0,0,6.987,83.9,0,0,872.1645,0,-0.435,3.143,294,7.035,8.08,0.4736926,0,49.62,57.45,33.2,35.09
"2013-11-02 23:20:00",102441,0,0,7.354,83,0,0,872.0045,0,0.428,3.134,468,7.044,8.08,0.6252743,0,49.62,57.45,33.2,35.09
"2013-11-02 23:30:00",102442,0.043,158.1,7.125,83.9,0,0,871.9012,0,0.311,3.14,404,7.075,8.08,0.2160038,0,49.62,57.45,33.2,35.09
"2013-11-02 23:40:00",102443,0,0,6.615,87,0,0,871.9539,0,0.041,3.14,496,7.097,8.1,0.1212653,0,49.62,57.45,33.2,35.09
"2013-11-02 23:50:00",102444,0.021,162.2,7.281,85.2,0,0,872.1077,0,-0.994,3.149,469,7.115,8.12,0.8374885,0,49.62,57.39,33.2,35.07
